Date String (YYYY-MM-DD hh:mm:ss) UTC,Instrument flags,Ambient pressure (hPa),Sample flow (lpm),Bypass flow (lpm),Sample temperature (°C),Ambient temperature (°C),ASC tube jacket temperature (°C),LED temperature (°C),Box temperature (°C),Sample RH (%),Span deviation,Mass concentration (μg/m³),Mass concentration (μg/m³),Mass concentration (μg/m³)
DateTimeUTC,F1_M11,P_M11,Q1_M11,Q2_M11,T1_M11,T2_M11,T3_M11,T4_M11,T5_M11,U1_M11,ZSPAN_M11,X0_M11,X2_M11,X1_M11
2021-12-07 11:00:00,,0818.0,5.02,0.00,22.2,21.5,00.0,31.3,23.9,09.6,0000.0,0013.64,0004.21,0002.25
2021-12-07 11:01:00,,0818.0,4.99,0.00,22.2,21.5,00.0,31.3,23.9,09.8,0000.0,0014.21,0004.37,0002.39
2021-12-07 11:02:00,,0818.0,5.00,0.00,22.2,21.5,00.0,31.3,23.9,09.6,0000.0,0014.73,0004.63,0002.62
2021-12-07 11:03:00,,0818.0,5.00,0.00,22.2,21.5,00.0,31.3,23.9,09.5,0000.0,0015.45,0004.92,0002.87
2021-12-07 11:04:00,,0818.0,5.00,0.00,22.2,21.5,00.0,31.2,23.9,09.6,0000.0,0015.73,0005.16,0003.08
2021-12-07 11:05:00,,0817.8,5.00,0.00,22.2,22.0,00.0,31.3,24.0,10.0,0000.0,0016.30,0005.16,0003.10
2021-12-07 11:06:00,,0817.9,5.00,0.00,22.4,22.8,00.0,31.3,24.3,10.4,0000.0,0015.79,0004.96,0002.96
2021-12-07 11:07:00,,0818.0,5.00,0.00,22.5,23.3,00.0,31.4,24.5,09.8,0000.0,0015.62,0004.94,0002.94
2021-12-07 11:08:00,,0817.9,5.00,0.00,22.6,23.0,00.0,31.4,24.4,09.6,0000.0,0015.82,0004.95,0002.93
2021-12-07 11:09:00,,0817.9,4.99,0.00,22.5,22.8,00.0,31.4,24.3,09.9,0000.0,0015.86,0004.96,0002.84
2021-12-07 11:10:00,,0818.0,5.01,0.00,22.5,22.5,00.0,31.4,24.2,10.7,0000.0,0015.98,0004.77,0002.66
2021-12-07 11:11:00,,0818.1,5.01,0.00,22.5,22.3,00.0,31.4,24.2,10.2,0000.0,0016.96,0004.58,0002.53
2021-12-07 11:12:00,,0818.1,5.01,0.00,22.4,22.1,00.0,31.4,24.1,09.8,0000.0,0017.65,0004.56,0002.49
2021-12-07 11:13:00,,0818.1,4.99,0.00,22.4,22.0,00.0,31.4,24.0,09.8,0000.0,0017.45,0004.52,0002.45
2021-12-07 11:14:00,,0818.1,5.01,0.00,22.3,21.9,00.0,31.4,24.0,09.8,0000.0,0017.38,0004.45,0002.38
2021-12-07 11:15:00,,0818.1,5.00,0.00,22.3,21.8,00.0,31.4,24.0,09.9,0000.0,0016.27,0004.24,0002.29
2021-12-07 11:16:00,,0818.1,5.00,0.00,22.3,21.7,00.0,31.4,23.9,10.2,0000.0,0015.67,0004.19,0002.21
2021-12-07 11:17:00,,0818.0,4.98,0.00,22.3,21.6,00.0,31.4,23.9,10.6,0000.0,0015.60,0004.18,0002.20
2021-12-07 11:18:00,,0818.2,5.00,0.00,22.2,21.6,00.0,31.3,23.9,10.9,0000.0,0014.72,0004.02,0002.10
2021-12-07 11:19:00,,0818.1,4.99,0.00,22.2,21.6,00.0,31.3,23.9,10.8,0000.0,0013.80,0003.86,0001.97
2021-12-07 11:20:00,,0818.2,5.00,0.00,22.2,21.5,00.0,31.3,23.9,10.3,0000.0,0013.12,0003.73,0001.91
2021-12-07 11:21:00,,0818.1,4.98,0.00,22.2,21.5,00.0,31.3,23.8,10.0,0000.0,0013.51,0003.79,0002.00
2021-12-07 11:22:00,,0818.0,5.02,0.00,22.1,21.4,00.0,31.3,23.8,10.7,0000.0,0012.25,0003.78,0001.99
2021-12-07 11:23:00,,0818.3,4.98,0.00,22.1,21.4,00.0,31.3,23.8,10.8,0000.0,0011.51,0003.66,0001.90
2021-12-07 11:24:00,,0818.2,5.01,0.00,22.1,21.4,00.0,31.3,23.8,10.4,0000.0,0011.52,0003.59,0001.83
2021-12-07 11:25:00,,0818.1,5.00,0.00,22.1,21.4,00.0,31.2,23.8,10.8,0000.0,0011.39,0003.46,0001.73
2021-12-07 11:26:00,,0818.0,4.99,0.00,22.1,21.3,00.0,31.2,23.7,11.2,0000.0,0011.06,0003.40,0001.61
2021-12-07 11:27:00,,0818.0,5.00,0.00,22.1,21.3,00.0,31.2,23.7,11.6,0000.0,0010.98,0003.28,0001.52
2021-12-07 11:28:00,,0817.9,5.00,0.00,22.0,21.3,00.0,31.2,23.6,11.8,0000.0,0010.94,0003.21,0001.46
2021-12-07 11:29:00,,0817.8,5.01,0.00,22.0,21.2,00.0,31.2,23.6,12.1,0000.0,0011.05,0003.16,0001.38
2021-12-07 11:30:00,,0817.6,5.00,0.00,22.0,21.2,00.0,31.1,23.6,12.4,0000.0,0011.16,0003.01,0001.30
2021-12-07 11:31:00,,0817.6,4.99,0.00,22.0,21.1,00.0,31.1,23.6,12.5,0000.0,0011.96,0002.74,0001.18
2021-12-07 11:32:00,,0817.5,5.00,0.00,22.0,21.2,00.0,31.1,23.6,12.5,0000.0,0011.70,0002.43,0000.99
2021-12-07 11:33:00,,0817.5,5.01,0.00,22.0,22.0,00.0,31.1,23.8,12.3,0000.0,0011.28,0002.23,0000.87
2021-12-07 11:34:00,,0817.6,5.00,0.00,22.2,22.9,00.0,31.2,24.1,12.0,0000.0,0010.81,0002.14,0000.79
2021-12-07 11:35:00,,0817.5,5.00,0.00,22.3,23.2,00.0,31.2,24.3,12.1,0000.0,0010.27,0001.90,0000.65
2021-12-07 11:36:00,,0817.5,4.99,0.00,22.3,22.9,00.0,31.2,24.2,12.0,0000.0,0009.45,0001.69,0000.54
2021-12-07 11:37:00,,0817.4,4.99,0.00,22.3,22.6,00.0,31.2,24.1,12.2,0000.0,0009.47,0001.50,0000.46
2021-12-07 11:38:00,,0817.4,5.01,0.00,22.3,22.3,00.0,31.2,24.0,12.1,0000.0,0009.01,0001.42,0000.42
2021-12-07 11:39:00,,0817.4,4.99,0.00,22.3,22.1,00.0,31.3,24.0,12.0,0000.0,0009.18,0001.33,0000.36
2021-12-07 11:40:00,,0817.4,5.00,0.00,22.3,21.9,00.0,31.3,23.9,12.0,0000.0,0009.38,0001.37,0000.33
2021-12-07 11:41:00,,0817.5,5.01,0.00,22.2,21.8,00.0,31.3,23.9,12.0,0000.0,0009.19,0001.39,0000.32
2021-12-07 11:42:00,,0817.8,5.00,0.00,22.2,21.7,00.0,31.2,23.9,11.9,0000.0,0007.99,0001.42,0000.32
2021-12-07 11:43:00,,0817.9,4.99,0.00,22.2,21.5,00.0,31.2,23.9,11.1,0000.0,0007.99,0001.65,0000.37
2021-12-07 11:44:00,,0818.0,5.01,0.00,22.1,21.4,00.0,31.2,23.8,10.5,0000.0,0009.28,0002.10,0000.57
2021-12-07 11:45:00,,0818.0,5.01,0.00,22.1,21.4,00.0,31.2,23.7,10.4,0000.0,0010.33,0002.42,0000.79
2021-12-07 11:46:00,,0818.1,4.99,0.00,22.0,21.2,00.0,31.2,23.6,10.1,0000.0,0011.85,0002.92,0001.04
2021-12-07 11:47:00,,0818.2,5.00,0.00,22.0,21.1,00.0,31.2,23.5,10.0,0000.0,0013.67,0003.36,0001.35
2021-12-07 11:48:00,,0818.2,5.01,0.00,21.9,21.0,00.0,31.1,23.5,10.0,0000.0,0014.64,0003.68,0001.67
2021-12-07 11:49:00,,0818.2,5.00,0.00,21.8,21.0,00.0,31.1,23.3,10.0,0000.0,0016.03,0004.03,0001.99
2021-12-07 11:50:00,,0818.2,5.00,0.00,21.8,20.9,00.0,31.1,23.2,10.0,0000.0,0016.63,0004.34,0002.31
2021-12-07 11:51:00,,0818.2,5.00,0.00,21.7,20.8,00.0,31.0,23.1,10.1,0000.0,0017.00,0004.63,0002.64
2021-12-07 11:52:00,,0818.3,5.01,0.00,21.7,21.1,00.0,31.0,23.2,10.1,0000.0,0017.82,0004.92,0002.95
2021-12-07 11:53:00,,0818.3,5.01,0.00,21.8,22.0,00.0,31.0,23.6,10.0,0000.0,0019.55,0005.23,0003.21
2021-12-07 11:54:00,,0818.3,5.00,0.00,22.0,22.8,00.0,31.1,23.9,10.0,0000.0,0020.32,0005.47,0003.37
2021-12-07 11:55:00,,0818.4,5.00,0.00,22.1,22.9,00.0,31.1,24.0,09.9,0000.0,0019.58,0005.53,0003.44
2021-12-07 11:56:00,,0818.4,4.99,0.00,22.1,22.5,00.0,31.1,23.9,09.9,0000.0,0020.24,0005.66,0003.48
2021-12-07 11:57:00,,0818.4,5.01,0.00,22.0,22.1,00.0,31.1,23.8,10.0,0000.0,0020.16,0005.73,0003.53
2021-12-07 11:58:00,,0818.4,4.99,0.00,22.0,21.9,00.0,31.1,23.6,10.0,0000.0,0019.69,0005.72,0003.54
2021-12-07 11:59:00,,0818.4,5.01,0.00,21.9,21.7,00.0,31.1,23.5,10.1,0000.0,0019.70,0005.77,0003.55
